Change the Weather History Date:

Friday, February 8, 2013

  Actual Average Record
Temperature  
Mean Temperature 29 °F -  
Max Temperature 32 °F 29 °F 63 °F (1990)
Min Temperature 26 °F 13 °F -10 °F (1977)
Degree Days  
Heating Degree Days 36    
Moisture  
Dew Point 25 °F    
Average Humidity 84    
Maximum Humidity 95    
Minimum Humidity 80    
Precipitation  
Precipitation 0.00 in - - ()
Sea Level Pressure  
Sea Level Pressure 30.28 in    
Wind  
Wind Speed 10 mph (NNE)    
Max Wind Speed 18 mph    
Max Gust Speed 23 mph    
Visibility 10 miles    
Events      
Averages and records for this station are not official NWS values.
T = Trace of Precipitation, MM = Missing Value Source: NWS Daily Summary

Daily Weather History Graph

Daily Weather History Graph

Search for Another Location

Airport or City:

Trip Planner

Search our weather history database for the weather conditions in past years. The results will help you decide how hot, cold, wet, or windy it might be!

Date:

Astronomy

Feb. 08, 2013 Rise Set
Actual Time 7:04 AM CST 5:28 PM CST
Civil Twilight 6:35 AM CST 5:56 PM CST
Nautical Twilight 6:03 AM CST 6:29 PM CST
Astronomical Twilight 5:31 AM CST 7:01 PM CST
Moon 5:33 AM CST (2/8) 4:01 PM CST (2/8)
Length of Visible Light 11h 20m
Length of Day
10h 23m
Waning Crescent, 3% of the Moon is Illuminated
Feb 8
Waning Crescent
Feb 10
New
Feb 17
First Quarter
Feb 25
Full
Mar 4
Last Quarter

Hourly Weather History & Observations

Time (CST) Temp. Windchill Dew Point Humidity Pressure Visibility Wind Dir Wind Speed Gust Speed Precip Events Conditions
12:15 AM 32.0 °F 23.6 °F 30.7 °F 95% 30.05 in 5.0 mi NW 10.4 mph 20.7 mph N/A   Overcast
12:35 AM 32.0 °F 22.1 °F 30.6 °F 94% 30.06 in 5.0 mi NW 13.8 mph - N/A   Overcast
12:55 AM 32.0 °F 23.0 °F 30.0 °F 92% 30.08 in 7.0 mi NW 11.5 mph - N/A   Overcast
1:15 AM 32.0 °F 22.1 °F 29.7 °F 91% 30.09 in 10.0 mi NNW 13.8 mph 18.4 mph N/A   Overcast
1:35 AM 32.0 °F 21.6 °F 28.8 °F 88% 30.09 in 10.0 mi NNW 15.0 mph 20.7 mph N/A   Overcast
1:55 AM 31.8 °F 22.3 °F 28.6 °F 88% 30.10 in 10.0 mi NNW 12.7 mph 21.9 mph N/A   Overcast
2:15 AM 31.8 °F 22.8 °F 28.4 °F 87% 30.11 in 10.0 mi NNW 11.5 mph 20.7 mph N/A   Overcast
2:35 AM 31.8 °F 21.8 °F 28.4 °F 87% 30.12 in 10.0 mi NNW 13.8 mph 20.7 mph N/A   Overcast
2:55 AM 31.6 °F 23.1 °F 28.9 °F 90% 30.12 in 10.0 mi NNW 10.4 mph - N/A   Overcast
3:15 AM 32.0 °F 22.1 °F 28.4 °F 87% 30.13 in 10.0 mi NW 13.8 mph - N/A   Overcast
3:35 AM 31.1 °F 20.5 °F 28.4 °F 90% 30.14 in 10.0 mi NNW 15.0 mph - N/A   Overcast
3:55 AM 31.1 °F 21.4 °F 28.4 °F 90% 30.15 in 10.0 mi NNW 12.7 mph - N/A   Overcast
4:15 AM 31.1 °F 20.5 °F 27.7 °F 87% 30.16 in 10.0 mi NNW 15.0 mph 23.0 mph N/A   Overcast
4:35 AM 31.1 °F 20.9 °F 27.5 °F 87% 30.17 in 10.0 mi NNW 13.8 mph 20.7 mph N/A   Overcast
4:55 AM 30.9 °F 20.7 °F 27.5 °F 87% 30.18 in 10.0 mi NNW 13.8 mph 18.4 mph N/A   Overcast
5:15 AM 30.2 °F 18.1 °F 26.8 °F 87% 30.19 in 10.0 mi NNW 18.4 mph - N/A   Overcast
5:35 AM 29.3 °F 19.6 °F 25.9 °F 87% 30.21 in 10.0 mi North 11.5 mph - N/A   Overcast
5:55 AM 29.3 °F 19.1 °F 25.7 °F 86% 30.21 in 10.0 mi North 12.7 mph - N/A   Overcast
6:15 AM 29.5 °F 19.3 °F 26.4 °F 88% 30.22 in 10.0 mi North 12.7 mph - N/A   Overcast
6:35 AM 29.3 °F 17.7 °F 25.7 °F 86% 30.24 in 10.0 mi North 16.1 mph - N/A   Overcast
6:55 AM 28.9 °F 17.7 °F 25.0 °F 85% 30.24 in 10.0 mi North 15.0 mph - N/A   Overcast
7:15 AM 28.9 °F 17.3 °F 24.6 °F 84% 30.25 in 10.0 mi North 16.1 mph - N/A   Overcast
7:35 AM 28.9 °F 19.8 °F 25.0 °F 85% 30.27 in 10.0 mi North 10.4 mph - N/A   Overcast
7:55 AM 29.1 °F 20.0 °F 25.3 °F 86% 30.27 in 10.0 mi NNW 10.4 mph - N/A   Overcast
8:15 AM 28.9 °F 18.6 °F 24.8 °F 84% 30.28 in 10.0 mi North 12.7 mph - N/A   Overcast
8:35 AM 28.4 °F 18.0 °F 25.0 °F 87% 30.30 in 10.0 mi North 12.7 mph - N/A   Overcast
8:55 AM 28.4 °F 18.5 °F 24.4 °F 85% 30.31 in 10.0 mi North 11.5 mph - N/A   Overcast
9:15 AM 28.0 °F 18.1 °F 23.5 °F 83% 30.31 in 10.0 mi NNW 11.5 mph - N/A   Overcast
9:35 AM 27.5 °F 18.6 °F 23.2 °F 84% 30.32 in 10.0 mi North 9.2 mph - N/A   Overcast
9:55 AM 27.9 °F 19.8 °F 23.5 °F 84% 30.33 in 10.0 mi North 8.1 mph - N/A   Overcast
10:15 AM 28.0 °F 18.6 °F 23.5 °F 83% 30.33 in 10.0 mi NNW 10.4 mph - N/A   Overcast
10:35 AM 28.0 °F 20.0 °F 23.7 °F 84% 30.34 in 10.0 mi North 8.1 mph - N/A   Overcast
10:55 AM 28.2 °F 19.5 °F 23.7 °F 83% 30.34 in 10.0 mi North 9.2 mph - N/A   Overcast
11:15 AM 28.2 °F 19.5 °F 23.5 °F 83% 30.35 in 10.0 mi North 9.2 mph - N/A   Overcast
11:35 AM 28.4 °F 19.7 °F 23.5 °F 82% 30.35 in 10.0 mi North 9.2 mph - N/A   Overcast
11:55 AM 28.9 °F 21.9 °F 23.7 °F 81% 30.34 in 10.0 mi North 6.9 mph - N/A   Overcast
12:15 PM 28.8 °F 21.7 °F 23.9 °F 82% 30.34 in 10.0 mi North 6.9 mph - N/A   Overcast
12:35 PM 28.4 °F 21.2 °F 23.7 °F 83% 30.34 in 10.0 mi NNE 6.9 mph - N/A   Overcast
12:55 PM 28.8 °F 21.7 °F 23.9 °F 82% 30.34 in 10.0 mi North 6.9 mph - N/A   Overcast
1:15 PM 28.4 °F 21.2 °F 23.5 °F 82% 30.34 in 10.0 mi NNE 6.9 mph - N/A   Overcast
1:35 PM 28.4 °F 24.6 °F 23.7 °F 83% 30.34 in 10.0 mi North 3.5 mph - N/A   Overcast
1:55 PM 28.8 °F 21.7 °F 23.7 °F 81% 30.34 in 10.0 mi North 6.9 mph - N/A   Overcast
2:15 PM 28.4 °F 23.3 °F 23.2 °F 81% 30.34 in 10.0 mi North 4.6 mph - N/A   Overcast
2:35 PM 28.8 °F 25.0 °F 23.2 °F 80% 30.34 in 10.0 mi NNE 3.5 mph - N/A   Overcast
2:55 PM 28.9 °F 25.2 °F 23.4 °F 80% 30.34 in 10.0 mi NNE 3.5 mph - N/A   Overcast
3:15 PM 28.9 °F 22.8 °F 23.4 °F 80% 30.34 in 10.0 mi NE 5.8 mph - N/A   Overcast
3:35 PM 28.9 °F 25.2 °F 23.4 °F 80% 30.35 in 10.0 mi East 3.5 mph - N/A   Overcast
3:55 PM 28.8 °F 25.0 °F 23.2 °F 80% 30.36 in 10.0 mi NNE 3.5 mph - N/A   Overcast
4:15 PM 28.8 °F 25.0 °F 23.4 °F 80% 30.35 in 10.0 mi North 3.5 mph - N/A   Overcast
4:35 PM 28.9 °F 25.2 °F 23.5 °F 80% 30.35 in 10.0 mi East 3.5 mph - N/A   Overcast
4:55 PM 28.6 °F - 23.4 °F 81% 30.36 in 10.0 mi Calm Calm - N/A   Overcast
5:15 PM 28.4 °F - 23.0 °F 80% 30.36 in 10.0 mi Calm Calm - N/A   Overcast
5:35 PM 28.4 °F - 23.0 °F 80% 30.36 in 10.0 mi Calm Calm - N/A   Overcast
5:55 PM 28.2 °F - 22.6 °F 80% 30.36 in 10.0 mi Calm Calm - N/A   Overcast
6:15 PM 28.2 °F 24.4 °F 23.2 °F 81% 30.35 in 10.0 mi SE 3.5 mph - N/A   Overcast
6:35 PM 28.2 °F 22.0 °F 23.5 °F 83% 30.34 in 10.0 mi East 5.8 mph - N/A   Overcast
6:55 PM 28.0 °F 22.8 °F 23.0 °F 81% 30.34 in 10.0 mi East 4.6 mph - N/A   Overcast
7:15 PM 27.7 °F 23.8 °F 22.8 °F 82% 30.36 in 10.0 mi SE 3.5 mph - N/A   Overcast
7:35 PM 27.7 °F 21.3 °F 23.0 °F 83% 30.36 in 10.0 mi East 5.8 mph - N/A   Overcast
7:55 PM 27.7 °F 23.8 °F 23.0 °F 83% 30.36 in 10.0 mi East 3.5 mph - N/A   Overcast
8:15 PM 27.7 °F 23.8 °F 23.0 °F 83% 30.36 in 10.0 mi SE 3.5 mph - N/A   Overcast
8:35 PM 27.3 °F 23.4 °F 22.8 °F 83% 30.36 in 10.0 mi ESE 3.5 mph - N/A   Overcast
8:55 PM 27.5 °F 22.2 °F 23.2 °F 84% 30.36 in 10.0 mi ESE 4.6 mph - N/A   Overcast
9:15 PM 27.1 °F 21.8 °F 22.8 °F 84% 30.35 in 10.0 mi SE 4.6 mph - N/A   Overcast
9:35 PM 27.1 °F 20.7 °F 22.8 °F 84% 30.35 in 10.0 mi SE 5.8 mph - N/A   Overcast
9:55 PM 26.6 °F 20.0 °F 22.6 °F 85% 30.35 in 10.0 mi ESE 5.8 mph - N/A   Overcast
10:15 PM 26.6 °F 20.0 °F 22.8 °F 86% 30.36 in 10.0 mi SE 5.8 mph - N/A   Overcast
10:35 PM 26.6 °F 19.1 °F 23.0 °F 86% 30.35 in 10.0 mi SE 6.9 mph - N/A   Overcast
10:55 PM 26.6 °F 20.0 °F 23.0 °F 86% 30.35 in 10.0 mi ESE 5.8 mph - N/A   Overcast
11:15 PM 26.6 °F 19.1 °F 23.0 °F 86% 30.35 in 10.0 mi ESE 6.9 mph - N/A   Overcast
11:35 PM 26.4 °F 19.8 °F 22.8 °F 86% 30.35 in 10.0 mi ESE 5.8 mph - N/A   Overcast
11:55 PM 26.6 °F 18.2 °F 23.0 °F 86% 30.35 in 10.0 mi SSE 8.1 mph - N/A   Overcast